This is the latest recevied weather packets stored in our database for station/object W9WRP. If no packets are shown the sender has not sent any weather packets the latest 10 day(s).
| Time | Temp. | Humidity | Pressure | Rain* | Wind** | Luminosity | Snow |
|---|---|---|---|---|---|---|---|
| 1787446191 | 44.44° C | 13% | 1012.6 hPa | 0 mm | - | 87 W/m² | - |
| 1787445888 | 44.44° C | 13% | 1012.6 hPa | 0 mm | - | 91 W/m² | - |
| 1787445583 | 45° C | 13% | 1012.4 hPa | 0 mm | - | 90 W/m² | - |
| 1787445279 | 45° C | 13% | 1012.5 hPa | 0 mm | - | 117 W/m² | - |
| 1787444974 | 44.44° C | 13% | 1012.5 hPa | 0 mm | - | 133 W/m² | - |
| 1787444671 | 45.56° C | 13% | 1012.4 hPa | 0 mm | - | 145 W/m² | - |
| 1787444367 | 44.44° C | 13% | 1012.3 hPa | 0 mm | - | 158 W/m² | - |
| 1787444067 | 44.44° C | 14% | 1012.5 hPa | 0 mm | - | 171 W/m² | - |
| 1787443760 | 43.89° C | 14% | 1012.4 hPa | 0 mm | - | 184 W/m² | - |
| 1787443455 | 44.44° C | 14% | 1012.4 hPa | 0 mm | - | 197 W/m² | - |
| 1787443155 | 44.44° C | 14% | 1012.5 hPa | 0 mm | - | 196 W/m² | - |
| 1787442850 | 45° C | 13% | 1012.4 hPa | 0 mm | - | 125 W/m² | - |
| 1787442547 | 45° C | 13% | 1012.5 hPa | 0 mm | - | 184 W/m² | - |
| 1787442242 | 45° C | 13% | 1012.6 hPa | 0 mm | - | 216 W/m² | - |
| 1787441937 | 45° C | 13% | 1012.4 hPa | 0 mm | - | 233 W/m² | - |
| 1787441632 | 44.44° C | 13% | 1012.6 hPa | 0 mm | - | 274 W/m² | - |
| 1787441326 | 44.44° C | 14% | 1012.5 hPa | 0 mm | - | 276 W/m² | - |
| 1787441023 | 45° C | 14% | 1012.5 hPa | 0 mm | - | 246 W/m² | - |
| 1787440719 | 45° C | 13% | 1012.6 hPa | 0 mm | - | 311 W/m² | - |
| 1787440413 | 44.44° C | 13% | 1012.8 hPa | 0 mm | - | 298 W/m² | - |
| 1787440110 | 44.44° C | 13% | 1012.8 hPa | 0 mm | - | 148 W/m² | - |
| 1787439805 | 45° C | 13% | 1012.7 hPa | 0 mm | - | 117 W/m² | - |
| 1787439501 | 44.44° C | 13% | 1012.9 hPa | 0 mm | - | 207 W/m² | - |
| 1787439197 | 45° C | 13% | 1012.9 hPa | 0 mm | - | 222 W/m² | - |
| 1787438893 | 46.11° C | 13% | 1012.8 hPa | 0 mm | - | 231 W/m² | - |
* Rain latest hour (hover to see other rain measurements)
** Current wind speed in m/s (hover to see current wind gust speed)